Погода в Отаре

Погода в Отаре : погода сейчас, прогноз погоды и архив. Всё, что Вы хотите узнать о погоде в Отаре!

Поиск расширенной информации на нашем сайте:

Другие новости

Новости СМИ2

Главная страница сайта

Новости сайта

03.07.2017

Напоминаем, что на нашем специализированном сайте Метеоцентр.Азия вы можете получить высокодетализированные автоматические прогнозы погоды по пунктам России, СНГ и мира в авиационном формате (включающие направление и скорость ветра, видимость, явления погоды, количество и форму облачности, нижнюю и верхнюю границу облачности).


Погода в Отаре - сегодня

Время (UTC), дата Ветер
(°,м/с) 
Видим.   Явления Облачность Т
(°С)
Тd
(°С)
f(%) Тe
(°С)
Pmin
(гПа)
dP
(гПа)
Po
(мм)
O2
(г/м3)
Тmin Tmax R s Состояние
почвы
12 17.02.18 050 (СВ) 20000 м    10/10 1000 м 
[Sc]
-4.5 -6.8 84 -6  1036.2  -0.8  708  291           
15 17.02.18 090 (В) н/о  слаб. снег  10/10 600 м 
[Ns]
-5.5 -6.9 90 -5  1037.2  0.6  708  292    -2.2  0.4     
18 17.02.18 090 (В) н/о    10/10 1000 м 
[Sc]
-6.8 -7.6 94 -6  1036.1  -1.5  707  293    -2.2  0.4     
21 17.02.18 070 (В) н/о    10/10 1000 м 
[Sc]
-7.9 -9.3 90 -9  1035.9  -0.5  707  294           
00 18.02.18 тихо () {04}  н/о    10/10 1000 м 
[Sc]
-8.2 -9.2 92 -8  1034.7  -1.2  706  294           
03 18.02.18 тихо ()   20000 м    10/10 1000 м 
[Sc]
-7.8 -8.8 93 -8  1035.6  707  294  -8.4    0.3  15  равномерный
сухой снег
100% 
06 18.02.18 110 (В) 20000 м    10/10 1000 м 
[Sc]
-5.1 -8.3 78 -10  1034  -0.7  706  291  -8.4    0.3     
09 18.02.18 090 (В) 20000 м    10/10 1000 м 
[Sc]
-4.2 -8 75 -5  1031.9  -1.5  705  289           
12 18.02.18 160 (Ю) 20000 м    10/10 1000 м 
[Sc]
-5.4 -9.2 75 -7  1033.5  706  291           
15 18.02.18 тихо ()   н/о    10/10 1000 м 
[Sc]
-7.8 -9.6 87 -8  1036.6  2.1  707  294    -3.4       
18 18.02.18 тихо ()   н/о    8/8 1000 м 
[Sc]
-12.8 -14.1 90 -13  1039.4  0.7  708  300    -3.4       
21 18.02.18 тихо ()   н/о  осадки на расстоянии{туман}  5/5 1000 м 
-17.6 -19.5 85 -18    0.4             
00 19.02.18 тихо ()   н/о    5/5 1000 м 
[Sc]
-17.4 -18.6 90 -17  1042.5  0.8  709  306           
03 19.02.18 тихо ()   20000 м    8/8 1000 м 
[Sc]
-15.9 -17.2 90 -16  1042.1  0.3  709  305  -17.8      15  равномерный
сухой снег
100% 
06 19.02.18 090 (В) 20000 м    10/6 1000 м верхняя 
[Sc|Cs]
-11.5 -14.3 80 -16  1040.1  -0.3  709  299  -17.8         
09 19.02.18 070 (В) 20000 м    4/3 1000 м верхняя 
[Sc diur, vesp|Ci fib]
-7.9 -12 72 -13  1036.5  -2.1  707  294           
12 19.02.18 070 (В) 20000 м    3/0 верхняя 
[Ci fib]
-8.3 -13 69 -13  1035.5  -1.1  706  295           
15 19.02.18 110 (В) н/о    ясно 
-12.5 -14.5 85 -17  1036.7  -0.3  706  299    -6.4       
18 19.02.18 200 (Ю) н/о    ясно 
-17.7 -18.9 90 -20  1036.3  -2.2  705  305    -6  140    мокрая 
21 19.02.18 тихо ()   н/о    ясно верхняя 
[Sc diur, vesp|Ci fib]
-18 -18.6 95 -18      752  326           
00 20.02.18 тихо () {08}  н/о    ясно 
-17 -18.3 90 -17  1034.2  -0.8  703  304           
03 20.02.18 270 (З) 10 км  слаб. снег  10/10 600 м 
[Ns]
-2.7 -3.7 93 -6  1031.4  1.3  705  287  -10.1      16  равномерный
сухой снег
100% 
06 20.02.18 тихо ()   20000 м    8/0 верхняя 
[Ci fib]
-4.2 -12.6 52 -4  1025.7  -0.8  701  288  -19.8         
09 20.02.18 140 (ЮВ) 20000 м    8/0 верхняя 
[Ci sp]
-5.1 -11 63 -8  1024.5  -2.2  700  288           
12 20.02.18 140 (ЮВ) 20000 м    4/0 верхняя 
[Ci fib]
-5.4 -11.9 60 -7  1023.1  -1.5  699  288           
Время (UTC), дата Ветер
(°,м/с) 
Видим.   Явления Облачность Т
(°С)
Тd
(°С)
f(%) Тe
(°С)
Pmin
(гПа)
dP
(гПа)
Po
(мм)
O2
(г/м3)
Тmin Tmax R s Состояние
почвы

Для получения пояснительной информации подведите курсор к названию столбца.

ПОГОДА в Отаре - архив

Всё, что Вы хотите узнать о погоде в Отаре - удобно и подробно!

Выберите нужную дату (начиная с 1 января 2015* года) и нажмите кнопку "Найти".
Будут отображены архивные сводки погоды по пункту Отар, начиная с указанной даты.


Отображать данные в формате CSV (для использования в таблицах Excel)


Внимание! Наш архив погоды предназначен исключительно для личного некоммерческого использования в познавательных целях. Если Вам необходимы официальные справки о состоянии погоды (для производственных, юридических, коммерческих и т.п. целей), обращайтесь в органы Росгидромета.

*Примечание: данная дата относится к архиву по метеостанциям СССР (Россия, СНГ, Балтия).
Архив по метеостанциям Зарубежной Европы и Азии (кроме Китая) хранится 10 дней, по другим регионам земного шара (Китай, Африка, Америка, Австралия, Океания) - 1 день.

Отар - район местоположения метеостанции


Название, широта, долгота, высота метеостанции:
Отар 43.5°ш. 75.2°д. 743 м над ур. моря [Казахстан]

Дополнительная информация

В oтличие oт бoльшинства пoгoдных сайтoв мы публикуем пoдрoбную метеoинфoрмацию в детальнoм прoфессиoнальнoм фoрмате.

Характеристики температуры и влажнoсти вoздуха измеряются на высoте 2 м в тени вдали oт зданий и деревьев.
Скoрoсть ветра измеряется на высoте 10 м (на урoвне рoста челoвека скoрoсть ветра ниже в 1.5-2 раза). Если метеoстанция нахoдится в гoрoде или в лесу, тo скoрoсть ветра занижена на 2-4 м/с пo сравнению с oткрытым местoм. Скoрoсть ветра над акватoриями крупных рек и oзёр, а также на вершинах хoлмoв на 2-5 м/с выше, чем в oбычных услoвиях.
Атмoсфернoе давление в разных тoчках местнoсти мoжет значительнo oтличаться oт давления на метеoстанции, в зависимoсти oт услoвий рельефа (при пoдъёме на 10 м давление пoнижается примернo на 1 мм рт.ст.).